Time,TemperatureF,DewpointF,PressureIn,WindDirection,WindDirectionDegrees,WindSpeedMPH,WindSpeedGustMPH,Humidity,HourlyPrecipIn,Conditions,Clouds,dailyrainin,SoftwareType,DateUTC
2013-01-27 00:01:00,11.0,3.0,30.08,SE,138,0.0,0.0,70,0.00,,,0.00,,2013-01-27 06:01:00,
2013-01-27 00:11:00,11.0,3.0,30.08,SE,138,0.0,0.0,70,0.00,,,0.00,,2013-01-27 06:11:00,
2013-01-27 00:21:00,11.0,3.0,30.08,SE,138,1.0,3.0,70,0.00,,,0.00,,2013-01-27 06:21:00,
2013-01-27 00:32:00,11.0,3.0,30.08,SE,138,1.0,3.0,70,0.00,,,0.00,,2013-01-27 06:32:00,
2013-01-27 00:42:00,11.0,3.0,30.08,SE,138,1.0,3.0,70,0.00,,,0.00,,2013-01-27 06:42:00,
2013-01-27 00:52:00,12.0,4.0,30.07,SE,138,0.0,2.0,70,0.00,,,0.00,,2013-01-27 06:52:00,
2013-01-27 01:01:00,12.0,4.0,30.07,SE,138,0.0,1.0,69,0.00,,,0.00,,2013-01-27 07:01:00,
2013-01-27 01:14:00,12.0,4.0,30.07,SE,138,0.0,1.0,69,0.00,,,0.00,,2013-01-27 07:14:00,
2013-01-27 01:21:00,12.0,4.0,30.06,SE,138,0.0,0.0,69,0.00,,,0.00,,2013-01-27 07:21:00,
2013-01-27 01:31:00,11.0,3.0,30.06,SE,138,0.0,0.0,68,0.00,,,0.00,,2013-01-27 07:31:00,
2013-01-27 01:41:00,11.0,3.0,30.06,SE,138,0.0,0.0,68,0.00,,,0.00,,2013-01-27 07:41:00,
2013-01-27 01:51:00,11.0,3.0,30.06,SE,138,0.0,2.0,71,0.00,,,0.00,,2013-01-27 07:51:00,
2013-01-27 02:01:00,11.0,3.0,30.05,North,360,1.0,3.0,70,0.00,,,0.00,,2013-01-27 08:01:00,
2013-01-27 02:11:00,11.0,3.0,30.05,North,360,1.0,3.0,70,0.00,,,0.00,,2013-01-27 08:11:00,
2013-01-27 02:22:00,11.0,3.0,30.04,North,355,0.0,3.0,71,0.00,,,0.00,,2013-01-27 08:22:00,
2013-01-27 02:31:00,10.0,3.0,30.04,North,355,0.0,2.0,71,0.00,,,0.00,,2013-01-27 08:31:00,
2013-01-27 02:42:00,10.0,3.0,30.04,North,355,0.0,2.0,71,0.00,,,0.00,,2013-01-27 08:42:00,
2013-01-27 02:52:00,10.0,3.0,30.04,North,355,0.0,2.0,71,0.00,,,0.00,,2013-01-27 08:52:00,
2013-01-27 03:02:00,10.0,2.0,30.04,North,355,0.0,0.0,70,0.00,,,0.00,,2013-01-27 09:02:00,
2013-01-27 03:11:00,10.0,2.0,30.04,North,355,0.0,0.0,70,0.00,,,0.00,,2013-01-27 09:11:00,
2013-01-27 03:21:00,10.0,3.0,30.03,North,355,0.0,1.0,71,0.00,,,0.00,,2013-01-27 09:21:00,
2013-01-27 03:32:00,10.0,3.0,30.03,North,355,0.0,1.0,71,0.00,,,0.00,,2013-01-27 09:32:00,
2013-01-27 03:41:00,10.0,3.0,30.03,North,355,0.0,1.0,71,0.00,,,0.00,,2013-01-27 09:41:00,
2013-01-27 03:51:00,10.0,3.0,30.01,North,355,0.0,0.0,71,0.00,,,0.00,,2013-01-27 09:51:00,
2013-01-27 04:01:00,10.0,3.0,30.01,North,355,0.0,0.0,72,0.00,,,0.00,,2013-01-27 10:01:00,
2013-01-27 04:11:00,10.0,3.0,30.01,North,355,0.0,0.0,72,0.00,,,0.00,,2013-01-27 10:11:00,
2013-01-27 04:21:00,10.0,3.0,30.01,North,355,0.0,0.0,72,0.00,,,0.00,,2013-01-27 10:21:00,
2013-01-27 04:31:00,10.0,3.0,30.00,North,355,0.0,0.0,73,0.00,,,0.00,,2013-01-27 10:31:00,
2013-01-27 04:42:00,10.0,3.0,30.00,North,355,0.0,0.0,73,0.00,,,0.00,,2013-01-27 10:42:00,
2013-01-27 04:52:00,9.0,2.0,29.99,North,355,0.0,1.0,72,0.00,,,0.00,,2013-01-27 10:52:00,
2013-01-27 05:01:00,10.0,3.0,29.98,North,355,0.0,1.0,73,0.00,,,0.00,,2013-01-27 11:01:00,
2013-01-27 05:11:00,10.0,3.0,29.98,North,355,0.0,1.0,73,0.00,,,0.00,,2013-01-27 11:11:00,
2013-01-27 05:21:00,10.0,3.0,29.98,North,355,0.0,1.0,73,0.00,,,0.00,,2013-01-27 11:21:00,
2013-01-27 05:32:00,10.0,3.0,29.97,North,355,0.0,1.0,71,0.00,,,0.00,,2013-01-27 11:32:00,
2013-01-27 05:42:00,10.0,3.0,29.97,North,355,0.0,1.0,71,0.00,,,0.00,,2013-01-27 11:42:00,
2013-01-27 05:52:00,10.0,3.0,29.97,North,355,0.0,2.0,71,0.00,,,0.00,,2013-01-27 11:52:00,
2013-01-27 06:02:00,11.0,4.0,29.96,North,355,1.0,2.0,72,0.00,,,0.00,,2013-01-27 12:02:00,
2013-01-27 06:11:00,11.0,4.0,29.96,North,355,1.0,2.0,72,0.00,,,0.00,,2013-01-27 12:11:00,
2013-01-27 06:21:00,11.0,4.0,29.96,WNW,296,1.0,3.0,72,0.00,,,0.00,,2013-01-27 12:21:00,
2013-01-27 06:32:00,11.0,3.0,29.96,WNW,296,0.0,3.0,71,0.00,,,0.00,,2013-01-27 12:32:00,
2013-01-27 06:42:00,11.0,3.0,29.96,WNW,296,0.0,3.0,71,0.00,,,0.00,,2013-01-27 12:42:00,
2013-01-27 06:52:00,11.0,4.0,29.96,WNW,283,0.0,3.0,72,0.00,,,0.00,,2013-01-27 12:52:00,
2013-01-27 07:02:00,11.0,4.0,29.96,WNW,283,0.0,2.0,72,0.00,,,0.00,,2013-01-27 13:02:00,
2013-01-27 07:11:00,11.0,4.0,29.96,WNW,283,0.0,2.0,72,0.00,,,0.00,,2013-01-27 13:11:00,
2013-01-27 07:22:00,12.0,5.0,29.96,West,279,0.0,2.0,72,0.00,,,0.00,,2013-01-27 13:22:00,
2013-01-27 07:32:00,12.0,4.0,29.96,SW,220,1.0,3.0,71,0.00,,,0.00,,2013-01-27 13:32:00,
2013-01-27 07:42:00,12.0,4.0,29.96,SW,220,1.0,3.0,71,0.00,,,0.00,,2013-01-27 13:42:00,
2013-01-27 07:52:00,13.0,5.0,29.96,SSW,209,2.0,4.0,70,0.00,,,0.00,,2013-01-27 13:52:00,
2013-01-27 08:02:00,13.0,5.0,29.95,South,182,1.0,5.0,69,0.00,,,0.00,,2013-01-27 14:02:00,
2013-01-27 08:11:00,13.0,5.0,29.95,South,182,1.0,5.0,69,0.00,,,0.00,,2013-01-27 14:11:00,
2013-01-27 08:22:00,13.0,5.0,29.95,South,182,1.0,2.0,69,0.00,,,0.00,,2013-01-27 14:22:00,
2013-01-27 08:32:00,13.0,5.0,29.94,South,182,0.0,0.0,69,0.00,,,0.00,,2013-01-27 14:32:00,
2013-01-27 08:42:00,13.0,5.0,29.94,South,182,0.0,0.0,69,0.00,,,0.00,,2013-01-27 14:42:00,
2013-01-27 08:52:00,13.0,5.0,29.94,South,182,0.0,0.0,69,0.00,,,0.00,,2013-01-27 14:52:00,
2013-01-27 09:02:00,13.0,5.0,29.94,South,182,0.0,0.0,70,0.00,,,0.00,,2013-01-27 15:02:00,
2013-01-27 09:12:00,13.0,5.0,29.94,South,182,0.0,0.0,70,0.00,,,0.00,,2013-01-27 15:12:00,
2013-01-27 09:22:00,13.0,4.0,29.93,South,173,0.0,0.0,68,0.00,,,0.00,,2013-01-27 15:22:00,
2013-01-27 09:32:00,13.0,5.0,29.93,South,173,0.0,1.0,69,0.00,,,0.00,,2013-01-27 15:32:00,
2013-01-27 09:42:00,13.0,5.0,29.93,South,173,0.0,1.0,69,0.00,,,0.00,,2013-01-27 15:42:00,
2013-01-27 09:52:00,14.0,6.0,29.92,South,173,0.0,0.0,71,0.00,,,0.00,,2013-01-27 15:52:00,
2013-01-27 10:02:00,16.0,8.0,29.92,SSE,162,0.0,3.0,70,0.00,,,0.00,,2013-01-27 16:02:00,
2013-01-27 10:12:00,16.0,8.0,29.92,SSE,162,0.0,3.0,70,0.00,,,0.00,,2013-01-27 16:12:00,
2013-01-27 10:21:00,17.0,9.0,29.92,SE,146,2.0,5.0,70,0.00,,,0.00,,2013-01-27 16:21:00,
2013-01-27 10:32:00,18.0,9.0,29.92,SSW,203,2.0,7.0,68,0.00,,,0.00,,2013-01-27 16:32:00,
2013-01-27 10:42:00,18.0,9.0,29.92,SSW,203,2.0,7.0,68,0.00,,,0.00,,2013-01-27 16:42:00,
2013-01-27 10:52:00,19.0,10.0,29.92,South,185,2.0,5.0,68,0.00,,,0.00,,2013-01-27 16:52:00,
2013-01-27 11:02:00,19.0,10.0,29.92,SE,145,1.0,5.0,67,0.00,,,0.00,,2013-01-27 17:02:00,
2013-01-27 11:12:00,19.0,10.0,29.92,SE,145,1.0,5.0,67,0.00,,,0.00,,2013-01-27 17:12:00,
2013-01-27 11:22:00,20.0,11.0,29.92,SE,138,2.0,5.0,67,0.00,,,0.00,,2013-01-27 17:22:00,
2013-01-27 11:32:00,21.0,11.0,29.92,SSE,155,2.0,7.0,66,0.00,,,0.00,,2013-01-27 17:32:00,
2013-01-27 11:42:00,21.0,11.0,29.92,SSE,155,2.0,7.0,66,0.00,,,0.00,,2013-01-27 17:42:00,
2013-01-27 11:52:00,22.0,12.0,29.92,South,180,2.0,6.0,65,0.00,,,0.00,,2013-01-27 17:52:00,
2013-01-27 12:02:00,23.0,13.0,29.91,SE,142,3.0,7.0,65,0.00,,,0.00,,2013-01-27 18:02:00,
2013-01-27 12:11:00,23.0,13.0,29.91,SE,142,3.0,7.0,65,0.00,,,0.00,,2013-01-27 18:11:00,
2013-01-27 12:22:00,23.0,13.0,29.91,SSE,148,4.0,8.0,65,0.00,,,0.00,,2013-01-27 18:22:00,
2013-01-27 12:32:00,23.0,13.0,29.90,SSE,150,4.0,10.0,65,0.00,,,0.00,,2013-01-27 18:32:00,
2013-01-27 12:42:00,23.0,13.0,29.90,SSE,150,4.0,10.0,65,0.00,,,0.00,,2013-01-27 18:42:00,
2013-01-27 12:52:00,24.0,14.0,29.89,ESE,119,4.0,7.0,66,0.00,,,0.00,,2013-01-27 18:52:00,
2013-01-27 13:02:00,25.0,15.0,29.89,ESE,117,5.0,10.0,65,0.00,,,0.00,,2013-01-27 19:02:00,
2013-01-27 13:11:00,25.0,15.0,29.89,ESE,117,5.0,10.0,65,0.00,,,0.00,,2013-01-27 19:11:00,
2013-01-27 13:22:00,25.0,15.0,29.88,SE,132,3.0,9.0,64,0.00,,,0.00,,2013-01-27 19:22:00,
2013-01-27 13:32:00,26.0,16.0,29.86,SSE,159,3.0,7.0,65,0.00,,,0.00,,2013-01-27 19:32:00,
2013-01-27 13:42:00,26.0,16.0,29.86,SSE,159,3.0,7.0,65,0.00,,,0.00,,2013-01-27 19:42:00,
2013-01-27 13:52:00,26.0,15.0,29.86,SE,128,2.0,7.0,63,0.00,,,0.00,,2013-01-27 19:52:00,
2013-01-27 14:02:00,27.0,16.0,29.86,SE,131,0.0,5.0,63,0.00,,,0.00,,2013-01-27 20:02:00,
2013-01-27 14:11:00,27.0,16.0,29.86,SE,131,0.0,5.0,63,0.00,,,0.00,,2013-01-27 20:11:00,
2013-01-27 14:22:00,27.0,16.0,29.86,ESE,103,3.0,7.0,64,0.00,,,0.00,,2013-01-27 20:22:00,
2013-01-27 14:32:00,27.0,17.0,29.85,East,94,2.0,7.0,65,0.00,,,0.00,,2013-01-27 20:32:00,
2013-01-27 14:42:00,27.0,17.0,29.85,East,94,2.0,7.0,65,0.00,,,0.00,,2013-01-27 20:42:00,
2013-01-27 14:52:00,27.0,17.0,29.85,East,99,2.0,5.0,65,0.00,,,0.00,,2013-01-27 20:52:00,
2013-01-27 15:02:00,27.0,16.0,29.85,East,94,2.0,5.0,64,0.00,,,0.00,,2013-01-27 21:02:00,
2013-01-27 15:12:00,27.0,16.0,29.85,East,94,2.0,5.0,64,0.00,,,0.00,,2013-01-27 21:12:00,
2013-01-27 15:22:00,27.0,17.0,29.85,ESE,108,2.0,4.0,65,0.00,,,0.00,,2013-01-27 21:22:00,
2013-01-27 15:33:00,28.0,18.0,29.84,SE,142,1.0,6.0,65,0.00,,,0.00,,2013-01-27 21:33:00,
2013-01-27 15:42:00,28.0,18.0,29.84,SE,142,1.0,6.0,65,0.00,,,0.00,,2013-01-27 21:42:00,
2013-01-27 15:52:00,28.0,17.0,29.84,SE,131,3.0,6.0,64,0.00,,,0.00,,2013-01-27 21:52:00,
2013-01-27 16:02:00,28.0,18.0,29.84,SE,130,4.0,8.0,65,0.00,,,0.00,,2013-01-27 22:02:00,
2013-01-27 16:11:00,28.0,18.0,29.84,SE,130,4.0,8.0,65,0.00,,,0.00,,2013-01-27 22:11:00,
2013-01-27 16:22:00,28.0,18.0,29.85,SE,133,2.0,6.0,65,0.00,,,0.00,,2013-01-27 22:22:00,
2013-01-27 16:32:00,28.0,18.0,29.85,SE,137,2.0,4.0,65,0.00,,,0.00,,2013-01-27 22:32:00,
2013-01-27 16:42:00,28.0,18.0,29.85,SE,137,2.0,4.0,65,0.00,,,0.00,,2013-01-27 22:42:00,
2013-01-27 16:52:00,28.0,18.0,29.84,SE,139,0.0,2.0,66,0.00,,,0.00,,2013-01-27 22:52:00,
2013-01-27 17:02:00,28.0,18.0,29.84,SE,139,0.0,2.0,65,0.00,,,0.00,,2013-01-27 23:02:00,
2013-01-27 17:12:00,28.0,18.0,29.84,SE,139,0.0,2.0,65,0.00,,,0.00,,2013-01-27 23:12:00,
2013-01-27 17:21:00,28.0,18.0,29.84,SE,139,0.0,2.0,65,0.00,,,0.00,,2013-01-27 23:21:00,
2013-01-27 17:32:00,28.0,18.0,29.85,SSE,153,0.0,1.0,66,0.00,,,0.00,,2013-01-27 23:32:00,
2013-01-27 17:41:00,28.0,18.0,29.85,SSE,153,0.0,1.0,66,0.00,,,0.00,,2013-01-27 23:41:00,
2013-01-27 17:52:00,28.0,18.0,29.85,SSE,153,0.0,0.0,66,0.00,,,0.00,,2013-01-27 23:52:00,
2013-01-27 18:02:00,28.0,18.0,29.85,SSE,153,0.0,1.0,67,0.00,,,0.00,,2013-01-28 00:02:00,
2013-01-27 18:11:00,28.0,18.0,29.85,SSE,153,0.0,1.0,67,0.00,,,0.00,,2013-01-28 00:11:00,
2013-01-27 18:21:00,28.0,19.0,29.85,WSW,238,2.0,3.0,69,0.00,,,0.00,,2013-01-28 00:21:00,
2013-01-27 18:32:00,28.0,19.0,29.85,WSW,238,2.0,3.0,69,0.00,,,0.00,,2013-01-28 00:32:00,
2013-01-27 18:42:00,28.0,19.0,29.85,WSW,238,2.0,3.0,69,0.00,,,0.00,,2013-01-28 00:42:00,
2013-01-27 18:51:00,27.0,18.0,29.84,WSW,238,0.0,2.0,68,0.00,,,0.00,,2013-01-28 00:51:00,
2013-01-27 19:02:00,27.0,18.0,29.84,WSW,238,0.0,2.0,68,0.00,,,0.00,,2013-01-28 01:02:00,
2013-01-27 19:11:00,27.0,18.0,29.84,WSW,238,0.0,2.0,68,0.00,,,0.00,,2013-01-28 01:11:00,
2013-01-27 19:22:00,27.0,18.0,29.84,WSW,239,0.0,0.0,68,0.00,,,0.00,,2013-01-28 01:22:00,
2013-01-27 19:33:00,27.0,18.0,29.84,WSW,239,0.0,2.0,69,0.00,,,0.00,,2013-01-28 01:33:00,
2013-01-27 19:42:00,27.0,18.0,29.84,WSW,239,0.0,2.0,69,0.00,,,0.00,,2013-01-28 01:42:00,
2013-01-27 19:52:00,28.0,20.0,29.84,WSW,239,0.0,2.0,72,0.00,,,0.00,,2013-01-28 01:52:00,
2013-01-27 20:02:00,28.0,20.0,29.84,WSW,239,0.0,2.0,72,0.00,,,0.00,,2013-01-28 02:02:00,
2013-01-27 20:11:00,28.0,20.0,29.84,WSW,239,0.0,2.0,72,0.00,,,0.00,,2013-01-28 02:11:00,
2013-01-27 20:22:00,27.0,20.0,29.84,WSW,239,3.0,5.0,74,0.00,,,0.00,,2013-01-28 02:22:00,
2013-01-27 20:32:00,27.0,20.0,29.84,WSW,251,3.0,4.0,76,0.00,,,0.00,,2013-01-28 02:32:00,
2013-01-27 20:42:00,27.0,20.0,29.84,WSW,251,3.0,4.0,76,0.00,,,0.00,,2013-01-28 02:42:00,
2013-01-27 20:52:00,27.0,21.0,29.84,WSW,250,1.0,4.0,77,0.00,,,0.00,,2013-01-28 02:52:00,
2013-01-27 21:02:00,27.0,21.0,29.83,WSW,250,0.0,2.0,77,0.00,,,0.00,,2013-01-28 03:02:00,
2013-01-27 21:11:00,27.0,21.0,29.83,WSW,250,0.0,2.0,77,0.00,,,0.00,,2013-01-28 03:11:00,
2013-01-27 21:21:00,27.0,21.0,29.83,WSW,250,0.0,2.0,77,0.00,,,0.00,,2013-01-28 03:21:00,
2013-01-27 21:32:00,27.0,21.0,29.83,WSW,250,0.0,0.0,78,0.00,,,0.00,,2013-01-28 03:32:00,
2013-01-27 21:42:00,27.0,21.0,29.83,WSW,250,0.0,0.0,78,0.00,,,0.00,,2013-01-28 03:42:00,
2013-01-27 21:52:00,27.0,21.0,29.83,WSW,250,0.0,0.0,78,0.00,,,0.00,,2013-01-28 03:52:00,
2013-01-27 22:02:00,27.0,21.0,29.83,WSW,250,0.0,0.0,78,0.00,,,0.00,,2013-01-28 04:02:00,
2013-01-27 22:11:00,27.0,21.0,29.83,WSW,250,0.0,0.0,78,0.00,,,0.00,,2013-01-28 04:11:00,
2013-01-27 22:22:00,27.0,21.0,29.83,WSW,250,0.0,0.0,78,0.00,,,0.00,,2013-01-28 04:22:00,
2013-01-27 22:32:00,27.0,21.0,29.84,WSW,250,0.0,1.0,78,0.00,,,0.00,,2013-01-28 04:32:00,
2013-01-27 22:42:00,27.0,21.0,29.84,WSW,250,0.0,1.0,78,0.00,,,0.00,,2013-01-28 04:42:00,
2013-01-27 22:52:00,27.0,21.0,29.84,WSW,250,0.0,0.0,78,0.00,,,0.00,,2013-01-28 04:52:00,
2013-01-27 23:04:00,27.0,21.0,29.83,North,360,1.0,2.0,78,0.00,,,0.00,,2013-01-28 05:04:00,
2013-01-27 23:11:00,27.0,21.0,29.83,North,360,1.0,2.0,78,0.00,,,0.00,,2013-01-28 05:11:00,
2013-01-27 23:21:00,26.0,20.0,29.84,North,360,0.0,2.0,78,0.00,,,0.00,,2013-01-28 05:21:00,
2013-01-27 23:32:00,26.0,20.0,29.84,North,360,0.0,2.0,78,0.00,,,0.00,,2013-01-28 05:32:00,
2013-01-27 23:41:00,26.0,20.0,29.84,North,360,0.0,2.0,78,0.00,,,0.00,,2013-01-28 05:41:00,
2013-01-27 23:52:00,26.0,20.0,29.83,ESE,104,1.0,5.0,79,0.00,,,0.00,,2013-01-28 05:52:00,